Location: Little Chesterford
(52.0500°N, 0.1833°E)
Time: 12:10:50
(UTC+00:00)

NOSS 3-2 (A) - Pass Details

Date: 26 September 2023
Orbit: 723 x 1483 km, 63.4° (Epoch: 19 November)

Event Time Altitude Azimuth Distance (km) Brightness Sun altitude
Rises 21:33:19 0° 310° (NW) 3,728 7.7 -31.8°
Reaches altitude 10° 21:35:48 10° 315° (NW) 2,880 6.8 -32.1°
Maximum altitude 21:42:38 56° 33° (NNE) 1,409 4.2 -32.7°
Enters shadow 21:43:17 55° 52° (NE) 1,444 4.2 -32.8°
